EZY8016 EGKK-EDDL

Flight info

Callsign EZY8016
Flight time 0h 55m
Altitude 32000
Route DVR L9 KONAN DCT KOK UL607 SPI Y862 KENUM M170 NVO T857 BIKMU BIKMU1A
Aircraft A320/M-SDE3FGHIRWY/LB1

Departure

Time 2026-05-05 13:17
Airport London Gatwick Airport (EGKK)

Arrival

Time 2026-05-05 14:13
Airport Düsseldorf Airport (EDDL)
Time Latitude Longitude Altitude Speed Heading
2026-05-05 12:51 51.15331 -0.18596 205 ft 0 kts 78°
2026-05-05 12:54 51.15331 -0.18597 205 ft 0 kts 78°
2026-05-05 12:59 51.15330 -0.18597 204 ft 0 kts 78°
2026-05-05 13:00 51.15331 -0.18597 204 ft 0 kts 78°
2026-05-05 13:00 51.15330 -0.18597 204 ft 0 kts 78°
2026-05-05 13:06 51.15329 -0.18605 204 ft 2 kts 78°
2026-05-05 13:06 51.15326 -0.18632 214 ft 2 kts 78°
2026-05-05 13:06 51.15322 -0.18658 208 ft 2 kts 78°
2026-05-05 13:06 51.15319 -0.18685 214 ft 2 kts 78°
2026-05-05 13:07 51.15318 -0.18713 217 ft 3 kts 111°
2026-05-05 13:07 51.15327 -0.18737 212 ft 3 kts 147°
2026-05-05 13:07 51.15340 -0.18747 204 ft 0 kts 168°
2026-05-05 13:09 51.15339 -0.18747 204 ft 2 kts 168°
2026-05-05 13:09 51.15321 -0.18741 209 ft 2 kts 168°
2026-05-05 13:09 51.15309 -0.18736 209 ft 1 kts 168°
2026-05-05 13:10 51.15288 -0.18729 214 ft 7 kts 168°
2026-05-05 13:10 51.15258 -0.18719 204 ft 0 kts 168°
2026-05-05 13:11 51.15232 -0.18711 211 ft 8 kts 169°
2026-05-05 13:11 51.15195 -0.18698 207 ft 6 kts 167°
2026-05-05 13:11 51.15155 -0.18694 204 ft 11 kts 194°
2026-05-05 13:12 51.15111 -0.18831 214 ft 19 kts 257°
2026-05-05 13:12 51.15085 -0.19021 210 ft 17 kts 257°
2026-05-05 13:12 51.15062 -0.19191 204 ft 15 kts 258°
2026-05-05 13:12 51.15041 -0.19346 213 ft 13 kts 258°
2026-05-05 13:13 51.15021 -0.19493 205 ft 14 kts 257°
2026-05-05 13:13 51.15000 -0.19640 205 ft 13 kts 258°
2026-05-05 13:13 51.14973 -0.19834 213 ft 21 kts 258°
2026-05-05 13:13 51.14944 -0.20047 204 ft 19 kts 257°
2026-05-05 13:14 51.14917 -0.20245 204 ft 18 kts 257°
2026-05-05 13:14 51.14892 -0.20427 203 ft 16 kts 258°
2026-05-05 13:14 51.14865 -0.20595 208 ft 15 kts 243°
2026-05-05 13:14 51.14785 -0.20678 204 ft 13 kts 206°
2026-05-05 13:15 51.14706 -0.20710 204 ft 10 kts 174°
2026-05-05 13:15 51.14692 -0.20706 208 ft 0 kts 169°
2026-05-05 13:15 51.14693 -0.20706 208 ft 0 kts 169°
2026-05-05 13:16 51.14655 -0.20694 212 ft 15 kts 168°
2026-05-05 13:16 51.14601 -0.20553 209 ft 19 kts 86°
2026-05-05 13:16 51.14639 -0.20257 210 ft 46 kts 77°
2026-05-05 13:17 51.14774 -0.19285 208 ft 130 kts 78°
2026-05-05 13:17 51.15001 -0.17625 598 ft 162 kts 77°
2026-05-05 13:17 51.15243 -0.15788 1447 ft 179 kts 75°
2026-05-05 13:17 51.15517 -0.13746 2299 ft 197 kts 76°
2026-05-05 13:18 51.15818 -0.11523 3094 ft 213 kts 75°
2026-05-05 13:18 51.16132 -0.09167 3673 ft 218 kts 77°
2026-05-05 13:18 51.16444 -0.06788 4498 ft 221 kts 77°
2026-05-05 13:18 51.16754 -0.04391 5315 ft 222 kts 77°
2026-05-05 13:19 51.17068 -0.01965 6018 ft 231 kts 77°
2026-05-05 13:19 51.17397 0.00595 6710 ft 240 kts 77°
2026-05-05 13:19 51.17740 0.03251 7371 ft 251 kts 78°
2026-05-05 13:19 51.18104 0.06025 8099 ft 260 kts 77°
2026-05-05 13:20 51.18303 0.08976 8633 ft 278 kts 93°
2026-05-05 13:20 51.18126 0.12088 9385 ft 285 kts 95°
2026-05-05 13:20 51.17935 0.15250 10166 ft 289 kts 95°
2026-05-05 13:20 51.17742 0.18464 11099 ft 292 kts 95°
2026-05-05 13:21 51.17546 0.21696 11931 ft 295 kts 95°
2026-05-05 13:21 51.17349 0.24918 12756 ft 297 kts 95°
2026-05-05 13:21 51.17148 0.28201 13581 ft 300 kts 95°
2026-05-05 13:21 51.16938 0.31620 13864 ft 321 kts 95°
2026-05-05 13:22 51.16873 0.35308 14026 ft 344 kts 90°
2026-05-05 13:22 51.16866 0.39181 14468 ft 354 kts 90°
2026-05-05 13:22 51.16861 0.43140 15072 ft 360 kts 90°
2026-05-05 13:22 51.16855 0.47144 15691 ft 363 kts 90°
2026-05-05 13:23 51.16846 0.51195 16308 ft 367 kts 90°
2026-05-05 13:23 51.16834 0.55279 16932 ft 371 kts 90°
2026-05-05 13:23 51.16820 0.59356 17516 ft 375 kts 90°
2026-05-05 13:23 51.16802 0.63535 18106 ft 379 kts 90°
2026-05-05 13:24 51.16782 0.67754 18649 ft 383 kts 90°
2026-05-05 13:24 51.16761 0.72007 19175 ft 386 kts 91°
2026-05-05 13:24 51.16739 0.76294 19704 ft 389 kts 91°
2026-05-05 13:24 51.16715 0.80607 20229 ft 389 kts 91°
2026-05-05 13:25 51.16687 0.84921 20866 ft 390 kts 91°
2026-05-05 13:25 51.16656 0.89254 21437 ft 392 kts 92°
2026-05-05 13:25 51.16623 0.93557 21983 ft 395 kts 92°
2026-05-05 13:25 51.16591 0.97950 22518 ft 398 kts 92°
2026-05-05 13:26 51.16559 1.02374 23037 ft 401 kts 92°
2026-05-05 13:26 51.16530 1.06828 23531 ft 404 kts 92°
2026-05-05 13:26 51.16497 1.11319 23929 ft 407 kts 92°
2026-05-05 13:26 51.16460 1.15833 24344 ft 409 kts 92°
2026-05-05 13:27 51.16419 1.20386 24743 ft 412 kts 92°
2026-05-05 13:27 51.16377 1.24951 25139 ft 414 kts 93°
2026-05-05 13:27 51.16330 1.29547 25623 ft 412 kts 93°
2026-05-05 13:27 51.16282 1.34085 26229 ft 410 kts 93°
2026-05-05 13:28 51.16202 1.38562 26670 ft 410 kts 95°
2026-05-05 13:28 51.16036 1.43108 27061 ft 412 kts 96°
2026-05-05 13:28 51.15810 1.47664 27442 ft 414 kts 97°
2026-05-05 13:28 51.15554 1.52230 27896 ft 414 kts 97°
2026-05-05 13:29 51.15297 1.56796 28359 ft 414 kts 97°
2026-05-05 13:29 51.15044 1.61377 28748 ft 416 kts 97°
2026-05-05 13:29 51.14802 1.65981 29102 ft 418 kts 97°
2026-05-05 13:29 51.14566 1.70611 29456 ft 420 kts 97°
2026-05-05 13:30 51.14334 1.75239 29964 ft 419 kts 97°
2026-05-05 13:30 51.14106 1.79812 30297 ft 421 kts 97°
2026-05-05 13:30 51.13875 1.84467 30596 ft 423 kts 97°
2026-05-05 13:30 51.13640 1.89139 30884 ft 425 kts 97°
2026-05-05 13:31 51.13397 1.93828 31254 ft 425 kts 97°
2026-05-05 13:31 51.13151 1.98516 31632 ft 425 kts 97°
2026-05-05 13:31 51.12905 2.03200 31896 ft 425 kts 97°
2026-05-05 13:31 51.12656 2.07926 31950 ft 432 kts 97°
2026-05-05 13:32 51.12136 2.17579 31944 ft 448 kts 97°
2026-05-05 13:32 51.11595 2.27579 31943 ft 457 kts 97°
2026-05-05 13:33 51.11042 2.37679 31939 ft 458 kts 97°
2026-05-05 13:33 51.10475 2.47774 31931 ft 458 kts 97°
2026-05-05 13:34 51.09893 2.57817 31924 ft 458 kts 97°
2026-05-05 13:34 51.09000 2.67812 31919 ft 455 kts 108°
2026-05-05 13:35 51.07262 2.77473 31913 ft 454 kts 108°
2026-05-05 13:35 51.05507 2.87114 31911 ft 454 kts 108°
2026-05-05 13:36 51.03745 2.96739 31922 ft 453 kts 109°
2026-05-05 13:36 51.01990 3.06281 31922 ft 453 kts 109°
2026-05-05 13:37 51.00219 3.15872 31924 ft 452 kts 109°
2026-05-05 13:37 50.98443 3.25435 31917 ft 451 kts 109°
2026-05-05 13:38 50.96665 3.34978 31912 ft 451 kts 109°
2026-05-05 13:38 50.94897 3.44439 31908 ft 450 kts 110°
2026-05-05 13:39 50.93114 3.53951 31910 ft 449 kts 110°
2026-05-05 13:39 50.91321 3.63432 31907 ft 449 kts 110°
2026-05-05 13:40 50.89513 3.72886 31906 ft 448 kts 110°
2026-05-05 13:40 50.87697 3.82255 31905 ft 448 kts 110°
2026-05-05 13:41 50.85865 3.91667 31901 ft 447 kts 110°
2026-05-05 13:41 50.84030 4.01071 31907 ft 447 kts 110°
2026-05-05 13:42 50.82189 4.10460 31915 ft 447 kts 111°
2026-05-05 13:42 50.80357 4.19771 31917 ft 446 kts 111°
2026-05-05 13:43 50.78500 4.29135 31919 ft 446 kts 111°
2026-05-05 13:43 50.76638 4.38475 31918 ft 446 kts 111°
2026-05-05 13:44 50.74771 4.47824 31913 ft 446 kts 111°
2026-05-05 13:44 50.72902 4.57142 31907 ft 447 kts 111°
2026-05-05 13:45 50.71048 4.66463 31897 ft 447 kts 110°
2026-05-05 13:45 50.69243 4.75855 31888 ft 448 kts 110°
2026-05-05 13:46 50.67430 4.85250 31879 ft 448 kts 110°
2026-05-05 13:46 50.65592 4.94638 31871 ft 448 kts 111°
2026-05-05 13:47 50.63684 5.03977 31873 ft 448 kts 111°
2026-05-05 13:47 50.61753 5.13237 31872 ft 448 kts 112°
2026-05-05 13:48 50.59809 5.22553 31691 ft 447 kts 111°
2026-05-05 13:48 50.58846 5.27184 30933 ft 444 kts 111°
2026-05-05 13:48 50.57888 5.31792 30242 ft 441 kts 111°
2026-05-05 13:49 50.56936 5.36367 29538 ft 438 kts 111°
2026-05-05 13:49 50.55989 5.40899 28835 ft 434 kts 111°
2026-05-05 13:49 50.55062 5.45318 28182 ft 430 kts 111°
2026-05-05 13:49 50.54125 5.49763 27541 ft 426 kts 111°
2026-05-05 13:50 50.53229 5.54181 26929 ft 423 kts 107°
2026-05-05 13:50 50.52764 5.58732 26337 ft 423 kts 96°
2026-05-05 13:50 50.52875 5.63354 25752 ft 423 kts 84°
2026-05-05 13:50 50.53558 5.67848 25180 ft 423 kts 73°
2026-05-05 13:51 50.54778 5.72052 24614 ft 423 kts 64°
2026-05-05 13:51 50.56168 5.76104 24055 ft 420 kts 64°
2026-05-05 13:51 50.57542 5.80137 23527 ft 417 kts 64°
2026-05-05 13:51 50.58880 5.84095 22957 ft 413 kts 65°
2026-05-05 13:52 50.60219 5.88074 22386 ft 410 kts 65°
2026-05-05 13:52 50.61545 5.92023 21852 ft 407 kts 65°
2026-05-05 13:52 50.62863 5.95947 21328 ft 404 kts 64°
2026-05-05 13:52 50.64170 5.99845 20828 ft 401 kts 64°
2026-05-05 13:53 50.65466 6.03717 20326 ft 398 kts 64°
2026-05-05 13:53 50.66756 6.07568 19829 ft 395 kts 64°
2026-05-05 13:53 50.68035 6.11380 19343 ft 393 kts 64°
2026-05-05 13:53 50.69309 6.15179 18861 ft 390 kts 64°
2026-05-05 13:54 50.70575 6.18953 18394 ft 388 kts 64°
2026-05-05 13:54 50.71833 6.22696 17908 ft 385 kts 64°
2026-05-05 13:54 50.72906 6.26487 17397 ft 381 kts 70°
2026-05-05 13:54 50.73886 6.30354 16906 ft 378 kts 70°
2026-05-05 13:55 50.74856 6.34193 16442 ft 375 kts 70°
2026-05-05 13:55 50.75818 6.38001 15972 ft 372 kts 70°
2026-05-05 13:55 50.76773 6.41781 15503 ft 369 kts 70°
2026-05-05 13:55 50.77713 6.45506 15283 ft 359 kts 70°
2026-05-05 13:56 50.78623 6.49114 15143 ft 348 kts 70°
2026-05-05 13:56 50.79508 6.52632 14839 ft 342 kts 70°
2026-05-05 13:56 50.80392 6.56110 14460 ft 340 kts 67°
2026-05-05 13:56 50.81617 6.59296 14128 ft 338 kts 52°
2026-05-05 13:57 50.83278 6.61861 13947 ft 332 kts 38°
2026-05-05 13:57 50.85221 6.63691 13630 ft 329 kts 24°
2026-05-05 13:57 50.87400 6.64748 13254 ft 328 kts
2026-05-05 13:57 50.89650 6.65233 12906 ft 327 kts
2026-05-05 13:58 50.91902 6.65708 12557 ft 325 kts
2026-05-05 13:58 50.94139 6.66185 12181 ft 323 kts
2026-05-05 13:58 50.96359 6.66663 11803 ft 321 kts
2026-05-05 13:58 50.98571 6.67141 11422 ft 319 kts
2026-05-05 13:59 51.02964 6.67900 10659 ft 316 kts 358°
2026-05-05 13:59 51.05120 6.67734 10293 ft 314 kts 356°
2026-05-05 14:00 51.09391 6.67382 9923 ft 302 kts 359°
2026-05-05 14:00 51.10778 6.67513 9743 ft 301 kts
2026-05-05 14:00 51.13482 6.68577 9248 ft 299 kts 16°
2026-05-05 14:00 51.15473 6.69489 8834 ft 297 kts 16°
2026-05-05 14:01 51.17455 6.70397 8459 ft 295 kts 16°
2026-05-05 14:01 51.19421 6.71296 8082 ft 293 kts 16°
2026-05-05 14:01 51.21376 6.72190 7712 ft 291 kts 16°
2026-05-05 14:01 51.23317 6.73076 7353 ft 290 kts 16°
2026-05-05 14:02 51.25240 6.73829 7010 ft 287 kts
2026-05-05 14:02 51.27177 6.73380 6645 ft 281 kts 334°
2026-05-05 14:02 51.28700 6.71538 6265 ft 275 kts 305°
2026-05-05 14:02 51.29481 6.68814 5851 ft 269 kts 278°
2026-05-05 14:03 51.29402 6.65879 5437 ft 265 kts 252°
2026-05-05 14:03 51.28517 6.63331 4999 ft 263 kts 225°
2026-05-05 14:03 51.27022 6.61729 4882 ft 261 kts 199°
2026-05-05 14:03 51.25290 6.61268 4824 ft 246 kts 182°
2026-05-05 14:04 51.23643 6.61113 4659 ft 236 kts 188°
2026-05-05 14:04 51.22072 6.60456 4346 ft 233 kts 202°
2026-05-05 14:04 51.20667 6.59196 3984 ft 232 kts 217°
2026-05-05 14:04 51.19509 6.57426 3644 ft 231 kts 232°
2026-05-05 14:05 51.18519 6.55399 3300 ft 231 kts 232°
2026-05-05 14:05 51.17364 6.53657 3025 ft 228 kts 207°
2026-05-05 14:05 51.15900 6.52762 3010 ft 224 kts 194°
2026-05-05 14:05 51.14374 6.52264 3007 ft 225 kts 188°
2026-05-05 14:06 51.12836 6.51831 2995 ft 224 kts 199°
2026-05-05 14:06 51.11595 6.50473 3000 ft 222 kts 233°
2026-05-05 14:06 51.11038 6.48227 3001 ft 220 kts 268°
2026-05-05 14:06 51.11374 6.45902 3009 ft 218 kts 303°
2026-05-05 14:07 51.12472 6.44311 3005 ft 216 kts 338°
2026-05-05 14:07 51.13935 6.44032 3000 ft 215 kts 15°
2026-05-05 14:07 51.15123 6.45345 3004 ft 211 kts 59°
2026-05-05 14:07 51.15485 6.47570 3019 ft 210 kts 84°
2026-05-05 14:08 51.15855 6.49782 3010 ft 207 kts 58°
2026-05-05 14:08 51.16677 6.51660 3011 ft 204 kts 53°
2026-05-05 14:08 51.17505 6.53388 2995 ft 193 kts 52°
2026-05-05 14:08 51.18303 6.55043 3001 ft 185 kts 52°
2026-05-05 14:09 51.19081 6.56661 2992 ft 184 kts 52°
2026-05-05 14:09 51.19855 6.58271 2840 ft 182 kts 52°
2026-05-05 14:09 51.20620 6.59863 2618 ft 180 kts 52°
2026-05-05 14:09 51.21379 6.61445 2392 ft 179 kts 51°
2026-05-05 14:10 51.22138 6.63027 2158 ft 180 kts 51°
2026-05-05 14:10 51.22894 6.64604 1945 ft 178 kts 51°
2026-05-05 14:10 51.23640 6.66161 1630 ft 180 kts 52°
2026-05-05 14:10 51.24368 6.67683 1405 ft 162 kts 51°
2026-05-05 14:11 51.25015 6.69037 1189 ft 146 kts 51°
2026-05-05 14:11 51.25601 6.70261 979 ft 134 kts 51°
2026-05-05 14:11 51.26156 6.71439 767 ft 132 kts 50°
2026-05-05 14:11 51.26707 6.72580 567 ft 129 kts 48°
2026-05-05 14:12 51.27246 6.73718 396 ft 128 kts 47°
2026-05-05 14:12 51.27795 6.74843 223 ft 128 kts 49°
2026-05-05 14:12 51.28324 6.75976 134 ft 122 kts 49°
2026-05-05 14:12 51.28751 6.76854 142 ft 75 kts 54°
2026-05-05 14:13 51.28948 6.77274 138 ft 26 kts 51°
2026-05-05 14:13 51.29019 6.77478 142 ft 14 kts 87°
2026-05-05 14:13 51.28988 6.77586 143 ft 0 kts 136°
2026-05-05 14:13 51.28975 6.77605 144 ft 11 kts 139°
2026-05-05 14:14 51.28968 6.77614 144 ft 0 kts 141°
2026-05-05 14:14 51.28955 6.77632 143 ft 11 kts 141°
2026-05-05 14:14 51.28907 6.77670 141 ft 3 kts 207°
2026-05-05 14:14 51.28884 6.77608 141 ft 10 kts 237°
2026-05-05 14:15 51.28841 6.77513 139 ft 11 kts 233°
2026-05-05 14:15 51.28801 6.77427 140 ft 9 kts 232°
2026-05-05 14:15 51.28749 6.77320 141 ft 12 kts 232°
2026-05-05 14:15 51.28700 6.77216 140 ft 11 kts 233°
2026-05-05 14:16 51.28659 6.77132 142 ft 8 kts 232°
2026-05-05 14:16 51.28621 6.77048 142 ft 14 kts 232°
2026-05-05 14:16 51.28557 6.76916 140 ft 15 kts 232°
2026-05-05 14:16 51.28495 6.76790 138 ft 14 kts 232°
2026-05-05 14:17 51.28432 6.76654 134 ft 16 kts 232°
2026-05-05 14:17 51.28377 6.76540 134 ft 9 kts 233°
2026-05-05 14:17 51.28329 6.76439 132 ft 16 kts 233°
2026-05-05 14:17 51.28266 6.76306 133 ft 13 kts 232°
2026-05-05 14:18 51.28216 6.76238 134 ft 10 kts 186°
2026-05-05 14:18 51.28135 6.76216 133 ft 9 kts 227°
2026-05-05 14:18 51.28077 6.76202 133 ft 12 kts 159°
2026-05-05 14:18 51.28051 6.76216 133 ft 1 kts 162°
2026-05-05 14:19 51.28045 6.76219 133 ft 0 kts 162°